Weather History for KETC - November, 2012

Change the Weather History Date:

Tuesday, November 27, 2012

  Actual Average Record
Temperature  
Mean Temperature 45 °F -  
Max Temperature 58 °F 65 °F 83 °F (1973)
Min Temperature 32 °F 38 °F 20 °F (1974)
Degree Days  
Heating Degree Days 20    
Moisture  
Dew Point 37 °F    
Average Humidity 75    
Maximum Humidity 96    
Minimum Humidity 41    
Precipitation  
Precipitation 0.01 in - - ()
Sea Level Pressure  
Sea Level Pressure 30.17 in    
Wind  
Wind Speed 2 mph (NNW)    
Max Wind Speed 12 mph    
Max Gust Speed 16 mph    
Visibility 9 miles    
Events Rain    
Averages and records for this station are not official NWS values.
T = Trace of Precipitation, MM = Missing Value Source: NWS Daily Summary

Daily Weather History Graph

Daily Weather History Graph

Search for Another Location

Airport or City:

Trip Planner

Search our weather history database for the weather conditions in past years. The results will help you decide how hot, cold, wet, or windy it might be!

Date:

Astronomy

Nov. 27, 2012 Rise Set
Actual Time 6:58 AM EST 4:56 PM EST
Civil Twilight 6:30 AM EST 5:24 PM EST
Nautical Twilight 5:59 AM EST 5:56 PM EST
Astronomical Twilight 5:28 AM EST 6:27 PM EST
Moon 4:26 PM EST (11/27) 6:02 AM EST (11/27)
Length of Visible Light 10h 54m
Length of Day
9h 58m
Waxing Gibbous, 99% of the Moon is Illuminated
Nov 27
Waxing Gibbous
Nov 28
Full
Dec 6
Last Quarter
Dec 13
New
Dec 20
First Quarter

Hourly Weather History & Observations

Time (EST) Temp. Windchill Dew Point Humidity Pressure Visibility Wind Dir Wind Speed Gust Speed Precip Events Conditions
12:15 AM 33.4 °F - 32.0 °F 94% 30.19 in 10.0 mi Calm Calm - N/A   Clear
12:35 AM 33.1 °F - 31.8 °F 95% 30.18 in 10.0 mi Calm Calm - N/A   Clear
12:55 AM 33.3 °F - 31.8 °F 94% 30.18 in 10.0 mi Calm Calm - N/A   Clear
1:15 AM 33.3 °F - 31.6 °F 94% 30.18 in 10.0 mi Calm Calm - N/A   Clear
1:35 AM 33.3 °F 30.2 °F 31.6 °F 94% 30.18 in 10.0 mi East 3.5 mph - N/A   Clear
1:55 AM 33.1 °F - 31.5 °F 94% 30.18 in 10.0 mi Calm Calm - N/A   Clear
2:15 AM 33.1 °F - 31.5 °F 94% 30.17 in 10.0 mi Calm Calm - N/A   Clear
2:35 AM 33.3 °F - 31.6 °F 94% 30.18 in 10.0 mi Calm Calm - N/A   Clear
2:55 AM 33.3 °F - 31.6 °F 94% 30.18 in 10.0 mi Calm Calm - N/A   Clear
3:15 AM 32.9 °F - 31.6 °F 95% 30.18 in 10.0 mi Calm Calm - N/A   Scattered Clouds
3:35 AM 32.7 °F - 31.6 °F 96% 30.18 in 7.0 mi Calm Calm - N/A   Scattered Clouds
3:55 AM 33.1 °F - 31.6 °F 94% 30.17 in 5.0 mi Calm Calm - N/A   Mostly Cloudy
4:15 AM 34.2 °F - 32.4 °F 93% 30.17 in 10.0 mi Calm Calm - N/A   Mostly Cloudy
4:35 AM 35.1 °F 32.2 °F 32.7 °F 91% 30.16 in 7.0 mi ESE 3.5 mph - N/A   Mostly Cloudy
4:55 AM 36.0 °F - 33.3 °F 90% 30.16 in 10.0 mi Calm Calm - N/A   Mostly Cloudy
5:15 AM 36.9 °F - 34.2 °F 90% 30.16 in 10.0 mi Calm Calm - N/A   Mostly Cloudy
5:35 AM 38.5 °F - 34.9 °F 87% 30.16 in 7.0 mi Calm Calm - N/A   Mostly Cloudy
5:55 AM 39.7 °F - 35.4 °F 85% 30.16 in 10.0 mi Calm Calm - N/A   Mostly Cloudy
6:15 AM 39.6 °F - 35.1 °F 84% 30.16 in 10.0 mi Calm Calm - N/A   Scattered Clouds
6:35 AM 39.7 °F - 34.9 °F 83% 30.16 in 10.0 mi Calm Calm - N/A   Scattered Clouds
6:55 AM 39.7 °F - 34.7 °F 82% 30.17 in 10.0 mi Calm Calm - N/A   Scattered Clouds
7:15 AM 39.9 °F - 34.3 °F 80% 30.17 in 10.0 mi Calm Calm - N/A   Mostly Cloudy
7:35 AM 39.9 °F 37.8 °F 35.4 °F 84% 30.16 in 10.0 mi ESE 3.5 mph - N/A   Mostly Cloudy
7:55 AM 41.2 °F - 36.0 °F 82% 30.16 in 10.0 mi Calm Calm - N/A   Overcast
8:15 AM 43.0 °F - 36.7 °F 78% 30.16 in 10.0 mi Calm Calm - N/A   Overcast
8:35 AM 45.0 °F - 37.2 °F 74% 30.17 in 10.0 mi Calm Calm - N/A   Overcast
8:55 AM 46.9 °F - 37.2 °F 69% 30.18 in 10.0 mi Calm Calm - N/A   Overcast
9:15 AM 48.9 °F - 37.4 °F 64% 30.18 in 10.0 mi Calm Calm - N/A   Overcast
9:35 AM 50.7 °F - 37.2 °F 60% 30.18 in 10.0 mi SW 3.5 mph - N/A   Overcast
9:55 AM 52.5 °F - 36.5 °F 54% 30.17 in 10.0 mi Calm Calm - N/A   Overcast
10:15 AM 53.4 °F - 36.1 °F 52% 30.16 in 10.0 mi Calm Calm - N/A   Mostly Cloudy
10:35 AM 54.1 °F - 35.8 °F 50% 30.16 in 10.0 mi South 3.5 mph - N/A   Overcast
10:55 AM 54.9 °F - 36.0 °F 49% 30.16 in 10.0 mi SSW 4.6 mph - N/A   Overcast
12:15 PM 57.0 °F - 36.0 °F 45% 30.13 in 10.0 mi West 5.8 mph - N/A   Overcast
12:35 PM 57.0 °F - 35.6 °F 45% 30.12 in 10.0 mi Calm Calm - N/A   Overcast
12:55 PM 57.7 °F - 35.1 °F 43% 30.11 in 10.0 mi Calm Calm - N/A   Mostly Cloudy
1:15 PM 58.1 °F - 34.9 °F 42% 30.11 in 10.0 mi West 3.5 mph - N/A   Mostly Cloudy
1:35 PM 58.1 °F - 34.2 °F 41% 30.11 in 10.0 mi WSW 4.6 mph - N/A   Overcast
1:55 PM 57.9 °F - 34.5 °F 41% 30.11 in 10.0 mi West 3.5 mph - N/A   Overcast
2:15 PM 57.6 °F - 34.9 °F 43% 30.12 in 10.0 mi WSW 3.5 mph - N/A Rain Light Rain
2:35 PM 56.5 °F - 37.6 °F 49% 30.13 in 10.0 mi Calm Calm - N/A   Overcast
2:55 PM 56.3 °F - 38.5 °F 51% 30.12 in 10.0 mi South 3.5 mph - N/A   Overcast
3:15 PM 56.5 °F - 37.9 °F 50% 30.13 in 10.0 mi SW 3.5 mph - N/A   Overcast
3:35 PM 56.5 °F - 37.6 °F 49% 30.13 in 10.0 mi WNW 3.5 mph - N/A   Overcast
3:55 PM 56.3 °F - 37.4 °F 49% 30.13 in 10.0 mi NW 3.5 mph - N/A   Overcast
4:15 PM 55.9 °F - 38.1 °F 51% 30.13 in 10.0 mi NNW 4.6 mph - N/A   Overcast
4:35 PM 55.0 °F - 38.5 °F 54% 30.13 in 10.0 mi North 6.9 mph - N/A   Overcast
4:55 PM 54.0 °F - 38.3 °F 55% 30.13 in 10.0 mi North 6.9 mph - N/A   Overcast
5:15 PM 52.3 °F - 36.9 °F 56% 30.13 in 10.0 mi North 10.4 mph - N/A   Overcast
5:55 PM 50.2 °F - 38.7 °F 65% 30.15 in 10.0 mi North 4.6 mph - N/A   Overcast
6:15 PM 48.9 °F - 40.1 °F 72% 30.16 in 10.0 mi North 8.1 mph - N/A Rain Rain
6:35 PM 47.7 °F - 41.2 °F 78% 30.16 in 10.0 mi North 6.9 mph - N/A Rain Rain
6:55 PM 46.8 °F - 42.1 °F 84% 30.18 in 10.0 mi North 5.8 mph - N/A Rain Rain
7:15 PM 46.0 °F 43.1 °F 42.4 °F 87% 30.19 in 10.0 mi NNW 5.8 mph - N/A Rain Light Rain
7:35 PM 45.5 °F 43.2 °F 42.6 °F 90% 30.19 in 7.0 mi North 4.6 mph - 0.01 in Rain Rain
7:55 PM 45.3 °F 44.0 °F 42.4 °F 90% 30.19 in 7.0 mi North 3.5 mph - 0.01 in Rain Light Rain
8:15 PM 45.0 °F 41.8 °F 42.4 °F 91% 30.20 in 7.0 mi North 5.8 mph - N/A Rain Light Rain
8:35 PM 44.8 °F 41.6 °F 42.3 °F 91% 30.20 in 7.0 mi North 5.8 mph - N/A   Light Drizzle
8:55 PM 44.6 °F - 42.3 °F 91% 30.21 in 7.0 mi Calm Calm - N/A Rain Light Rain
9:15 PM 44.6 °F 40.7 °F 42.3 °F 91% 30.20 in 7.0 mi North 6.9 mph - N/A   Light Drizzle
9:35 PM 44.6 °F 41.4 °F 42.1 °F 91% 30.21 in 7.0 mi North 5.8 mph - N/A   Overcast
9:55 PM 44.4 °F 39.0 °F 41.9 °F 91% 30.21 in 7.0 mi North 10.4 mph - N/A   Overcast
10:15 PM 44.1 °F 38.6 °F 41.4 °F 90% 30.22 in 7.0 mi North 10.4 mph - N/A   Overcast
10:35 PM 43.5 °F 37.5 °F 40.6 °F 90% 30.23 in 7.0 mi North 11.5 mph - N/A   Overcast
10:55 PM 42.8 °F 37.5 °F 39.4 °F 88% 30.23 in 10.0 mi North 9.2 mph 16.1 mph N/A   Overcast
11:15 PM 42.4 °F 38.1 °F 38.5 °F 86% 30.23 in 10.0 mi North 6.9 mph - N/A   Overcast
11:35 PM 42.1 °F 37.7 °F 38.3 °F 86% 30.23 in 10.0 mi North 6.9 mph - N/A   Overcast
11:55 PM 41.9 °F 38.2 °F 37.8 °F 85% 30.24 in 10.0 mi North 5.8 mph - N/A   Overcast